OM2RC-6 Weather Reports


time (UTC)temp
C
wind
direction
speed
KPH
gust
KPH
rain 1hr
cm
rain 24hr
cm
rain mn
cm
humidity
%
barometer
mb
20260505223903 15 145 19.3 35.4 0.00 0.00 0.00 98 1007.2
20260505223402 15 152 17.7 35.4 0.00 0.00 0.00 98 1007.3
20260505222901 15 149 17.7 35.4 0.00 0.00 0.00 98 1007.3
20260505222359 15 159 17.7 37.0 0.00 0.00 0.00 97 1007.5
20260505221858 15 151 19.3 37.0 0.00 0.00 0.00 96 1007.6
20260505221358 15 153 19.3 35.4 0.00 0.00 0.00 96 1007.6
20260505220855 15 152 17.7 37.0 0.00 0.00 0.00 95 1007.6
20260505215853 15 159 22.5 37.0 0.00 0.00 0.00 95 1007.3
20260505214851 15 156 17.7 35.4 0.00 0.00 0.00 94 1007.5
20260505213849 15 159 16.1 33.8 0.00 0.00 0.00 94 1007.5
20260505213348 15 153 16.1 33.8 0.00 0.00 0.00 92 1007.7
20260505212847 15 157 14.5 35.4 0.00 0.00 0.00 93 1007.7
20260505212346 16 156 17.7 35.4 0.00 0.00 0.00 92 1007.6
20260505211845 16 150 17.7 30.6 0.00 0.00 0.00 92 1007.6
20260505211344 16 163 17.7 30.6 0.00 0.00 0.00 92 1007.6
20260505210843 16 171 19.3 32.2 0.00 0.00 0.00 91 1007.8
20260505210342 16 168 12.9 33.8 0.00 0.00 0.00 92 1007.7
20260505205841 16 153 16.1 35.4 0.00 0.00 0.00 90 1007.7
20260505205340 16 155 20.9 38.6 0.00 0.00 0.00 89 1007.6
20260505204838 16 152 20.9 35.4 0.00 0.00 0.00 89 1007.6
20260505203333 16 152 16.1 35.4 0.00 0.00 0.00 88 1007.6
20260505202832 16 151 17.7 38.6 0.00 0.00 0.00 87 1007.6
20260505202331 16 149 16.1 38.6 0.00 0.00 0.00 88 1007.7
20260505201830 16 149 14.5 35.4 0.00 0.00 0.00 87 1007.6
20260505201329 16 154 17.7 35.4 0.00 0.00 0.00 87 1007.7
20260505200327 16 140 16.1 35.4 0.00 0.00 0.00 86 1007.7
20260505195553 16 146 11.3 29.0 0.00 0.00 0.00 86 1007.7
20260505195034 17 139 12.9 35.4 0.00 0.00 0.00 85 1007.8
20260505194515 17 151 14.5 35.4 0.00 0.00 0.00 84 1007.8
20260505193956 17 156 9.7 38.6 0.00 0.00 0.00 84 1007.8
20260505193610 17 152 17.7 38.6 0.00 0.00 0.00 83 1007.7
20260505192918 17 143 14.5 32.2 0.00 0.00 0.00 82 1007.8
20260505192358 17 157 11.3 32.2 0.00 0.00 0.00 82 1007.9
20260505191839 17 162 14.5 27.4 0.00 0.00 0.00 80 1007.9
20260505191353 17 172 8.0 27.4 0.00 0.00 0.00 80 1008.1
20260505190801 17 164 8.0 22.5 0.00 0.00 0.00 79 1007.9
20260505190242 17 159 9.7 22.5 0.00 0.00 0.00 78 1008.1
20260505185723 17 163 4.8 19.3 0.00 0.00 0.00 77 1008.1
20260505185211 17 174 4.8 12.9 0.00 0.00 0.00 76 1008.0
20260505184645 17 191 4.8 19.3 0.00 0.00 0.00 74 1007.9
20260505184126 17 184 8.0 20.9 0.00 0.00 0.00 73 1007.9
20260505183607 17 163 9.7 30.6 0.00 0.00 0.00 71 1007.8
20260505183047 17 163 16.1 30.6 0.00 0.00 0.00 69 1007.7
20260505181450 18 144 11.3 24.1 0.00 0.00 0.00 66 1007.7
20260505180935 18 162 11.3 30.6 0.00 0.00 0.00 63 1007.6
20260505180514 18 151 19.3 30.6 0.00 0.00 0.00 60 1007.8
20260505175853 18 174 11.3 22.5 0.00 0.00 0.00 59 1007.7
20260505175334 18 174 8.0 24.1 0.00 0.00 0.00 56 1007.7
20260505174815 18 155 9.7 20.9 0.00 0.00 0.00 55 1007.7
20260505174256 18 154 11.3 24.1 0.00 0.00 0.00 54 1007.7
20260505173737 19 171 8.0 25.7 0.00 0.00 0.00 54 1007.6
20260505173218 19 157 9.7 25.7 0.00 0.00 0.00 54 1007.7
20260505171200 20 157 17.7 40.2 0.00 0.00 0.00 50 1007.3
20260505170658 20 152 19.3 49.9 0.00 0.00 0.00 50 1007.2
20260505170158 20 152 20.9 49.9 0.00 0.00 0.00 51 1007.3
20260505165152 20 157 19.3 46.7 0.00 0.00 0.00 53 1007.4
20260505164651 20 162 14.5 49.9 0.00 0.00 0.00 54 1007.6
20260505164150 21 162 14.5 49.9 0.00 0.00 0.00 53 1007.6
20260505163649 21 169 22.5 48.3 0.00 0.00 0.00 52 1007.6
20260505163148 21 164 27.4 48.3 0.00 0.00 0.00 51 1007.3
20260505162646 21 159 20.9 40.2 0.00 0.00 0.00 51 1007.8
20260505162145 21 160 24.1 41.8 0.00 0.00 0.00 51 1007.5
20260505161643 21 162 25.7 41.8 0.00 0.00 0.00 49 1007.7
20260505161140 22 158 14.5 38.6 0.00 0.00 0.00 48 1007.7
20260505160638 22 161 24.1 49.9 0.00 0.00 0.00 49 1007.8
20260505160133 22 164 25.7 51.5 0.00 0.00 0.00 48 1007.8
20260505153123 23 162 27.4 57.9 0.00 0.00 0.00 46 1007.7
20260505152621 23 158 29.0 57.9 0.00 0.00 0.00 45 1007.4
20260505152120 23 163 22.5 48.3 0.00 0.00 0.00 46 1007.6
20260505151617 24 167 22.5 40.2 0.00 0.00 0.00 45 1007.6
20260505151116 24 164 17.7 37.0 0.00 0.00 0.00 44 1007.6
20260505150615 24 162 20.9 35.4 0.00 0.00 0.00 43 1007.7
20260505125040 25 164 12.9 33.8 0.00 0.00 0.00 43 1008.9
20260505124539 25 174 12.9 33.8 0.00 0.00 0.00 43 1009.0
20260505124038 25 149 11.3 38.6 0.00 0.00 0.00 43 1009.0
20260505123036 24 168 22.5 40.2 0.00 0.00 0.00 44 1009.0
20260505122533 24 146 14.5 40.2 0.00 0.00 0.00 43 1009.1
20260505121530 22 145 17.7 43.5 0.00 0.00 0.00 44 1009.1
20260505121028 22 136 20.9 37.0 0.00 0.00 0.00 44 1009.2
20260505120527 22 147 17.7 38.6 0.00 0.00 0.00 44 1009.2
20260505115525 22 146 19.3 41.8 0.00 0.00 0.00 42 1009.3
20260505115024 23 134 17.7 40.2 0.00 0.00 0.00 40 1009.2
20260505114021 23 145 19.3 37.0 0.00 0.00 0.00 39 1009.2
20260505113520 23 137 19.3 35.4 0.00 0.00 0.00 40 1009.4
20260505113018 23 131 16.1 35.4 0.00 0.00 0.00 40 1009.2
20260505112517 23 158 12.9 35.4 0.00 0.00 0.00 40 1009.2
20260505112016 23 153 14.5 37.0 0.00 0.00 0.00 41 1009.4
20260505111514 23 125 20.9 37.0 0.00 0.00 0.00 41 1009.6
20260505111012 23 149 16.1 33.8 0.00 0.00 0.00 44 1009.4
20260505110512 23 151 17.7 46.7 0.00 0.00 0.00 45 1009.6
20260505101958 22 137 20.9 48.3 0.00 0.00 0.00 47 1009.7
20260505101456 22 165 25.7 48.3 0.00 0.00 0.00 49 1009.8
20260505100453 22 146 19.3 33.8 0.00 0.00 0.00 53 1009.9
20260505095953 21 146 16.1 33.8 0.00 0.00 0.00 53 1009.9
20260505095449 22 150 14.5 33.8 0.00 0.00 0.00 53 1009.9
20260505094948 21 141 19.3 49.9 0.00 0.00 0.00 53 1010.0
20260505094446 21 132 22.5 49.9 0.00 0.00 0.00 55 1010.1
20260505093444 21 137 19.3 41.8 0.00 0.00 0.00 56 1009.8
20260505092943 20 147 19.3 37.0 0.00 0.00 0.00 57 1010.3
20260505092442 20 137 17.7 41.8 0.00 0.00 0.00 60 1010.3
20260505091941 19 134 19.3 45.1 0.00 0.00 0.00 61 1010.2
20260505091439 19 133 22.5 45.1 0.00 0.00 0.00 61 1010.2
20260505090937 20 146 19.3 35.4 0.00 0.00 0.00 59 1010.3
20260505090436 20 139 16.1 35.4 0.00 0.00 0.00 59 1010.3
20260505085936 19 141 12.9 35.4 0.00 0.00 0.00 60 1010.5
20260505084433 18 136 8.0 25.7 0.00 0.00 0.00 64 1010.9
20260505083931 18 126 11.3 33.8 0.00 0.00 0.00 63 1010.9
20260505082929 19 147 11.3 38.6 0.00 0.00 0.00 62 1011.0
20260505082427 20 157 11.3 38.6 0.00 0.00 0.00 60 1011.2
20260505081926 19 125 17.7 33.8 0.00 0.00 0.00 62 1010.9
20260505081425 18 131 14.5 32.2 0.00 0.00 0.00 64 1011.0
20260505080924 18 137 16.1 32.2 0.00 0.00 0.00 64 1010.9
20260505080422 18 117 12.9 30.6 0.00 0.00 0.00 64 1010.9
20260505075420 17 134 19.3 35.4 0.00 0.00 0.00 66 1010.8
20260505074919 17 130 19.3 37.0 0.00 0.00 0.00 69 1011.0
20260505074418 17 129 16.1 37.0 0.00 0.00 0.00 68 1010.9
20260505073916 17 128 16.1 33.8 0.00 0.00 0.00 68 1011.0
20260505073415 17 128 17.7 35.4 0.00 0.00 0.00 68 1011.0
20260505072914 17 143 16.1 35.4 0.00 0.00 0.00 68 1011.1
20260505072413 17 142 16.1 29.0 0.00 0.00 0.00 69 1011.2
20260505071911 17 144 12.9 35.4 0.00 0.00 0.00 69 1011.2
20260505070408 15 147 20.9 35.4 0.00 0.00 0.00 74 1011.3
20260505065907 16 139 14.5 35.4 0.00 0.00 0.00 73 1011.3
20260505065406 16 135 16.1 33.8 0.00 0.00 0.00 74 1011.2
20260505064906 16 142 12.9 33.8 0.00 0.00 0.00 74 1011.3
20260505064404 15 148 16.1 37.0 0.00 0.00 0.00 74 1011.2
20260505063902 15 156 14.5 46.7 0.00 0.00 0.00 74 1011.2
20260505062900 15 152 14.5 41.8 0.00 0.00 0.00 73 1011.1
20260505062359 15 151 17.7 38.6 0.00 0.00 0.00 75 1011.0
20260505061356 15 149 17.7 37.0 0.00 0.00 0.00 75 1010.9
20260505060855 15 143 16.1 40.2 0.00 0.00 0.00 75 1010.8
20260505060354 15 135 16.1 40.2 0.00 0.00 0.00 76 1010.8
20260505055853 14 142 22.5 40.2 0.00 0.00 0.00 76 1010.9
20260505055352 14 150 19.3 40.2 0.00 0.00 0.00 77 1010.8
20260505054851 14 147 14.5 35.4 0.00 0.00 0.00 77 1010.9
20260505054350 14 149 17.7 40.2 0.00 0.00 0.00 77 1010.9
20260505053849 14 139 20.9 40.2 0.00 0.00 0.00 76 1010.9
20260505052848 14 141 17.7 37.0 0.00 0.00 0.00 75 1011.1
20260505052346 14 139 17.7 40.2 0.00 0.00 0.00 74 1011.0
20260505051844 14 136 19.3 43.5 0.00 0.00 0.00 74 1011.0
20260505051342 14 158 19.3 43.5 0.00 0.00 0.00 74 1011.0
20260505050339 14 154 16.1 35.4 0.00 0.00 0.00 72 1010.8
20260505041327 14 143 17.7 37.0 0.00 0.00 0.00 70 1010.9
20260505040825 14 142 17.7 37.0 0.00 0.00 0.00 69 1010.8
20260505035823 14 146 17.7 40.2 0.00 0.00 0.00 68 1010.9
20260505034820 13 146 16.1 30.6 0.00 0.00 0.00 68 1011.0
20260505033816 14 152 16.1 35.4 0.00 0.00 0.00 66 1010.7
20260505033312 14 148 12.9 33.8 0.00 0.00 0.00 65 1011.0
20260505032809 14 149 17.7 37.0 0.00 0.00 0.00 62 1011.0
20260505032308 14 143 14.5 37.0 0.00 0.00 0.00 61 1011.0
20260505031807 14 150 16.1 38.6 0.00 0.00 0.00 61 1011.0
20260505030804 14 144 17.7 41.8 0.00 0.00 0.00 59 1010.9
20260505030302 14 138 16.1 41.8 0.00 0.00 0.00 58 1010.8
20260505025801 15 138 22.5 38.6 0.00 0.00 0.00 57 1010.9
20260505025300 15 137 19.3 35.4 0.00 0.00 0.00 57 1010.8
20260505024759 15 151 19.3 35.4 0.00 0.00 0.00 56 1011.0
20260505024258 15 147 14.5 35.4 0.00 0.00 0.00 55 1010.9
20260505023756 15 142 19.3 35.4 0.00 0.00 0.00 54 1010.9
20260505023255 15 143 14.5 33.8 0.00 0.00 0.00 53 1010.9
20260505022754 15 149 14.5 38.6 0.00 0.00 0.00 52 1011.0
20260505022252 15 147 16.1 38.6 0.00 0.00 0.00 52 1011.0
20260505021751 15 138 17.7 35.4 0.00 0.00 0.00 51 1011.0
20260505021250 15 138 16.1 35.4 0.00 0.00 0.00 51 1011.2
20260505020749 15 138 17.7 41.8 0.00 0.00 0.00 51 1011.1
20260505020247 15 144 19.3 41.8 0.00 0.00 0.00 50 1011.1
20260505015746 15 133 24.1 38.6 0.00 0.00 0.00 49 1011.2
20260505015245 15 140 17.7 33.8 0.00 0.00 0.00 49 1011.3
20260505014744 15 148 14.5 33.8 0.00 0.00 0.00 49 1011.5
20260505014243 15 146 12.9 33.8 0.00 0.00 0.00 49 1011.5
20260505013742 15 148 14.5 33.8 0.00 0.00 0.00 48 1011.6
20260505013241 15 141 16.1 38.6 0.00 0.00 0.00 48 1011.5
20260505012739 15 148 19.3 38.6 0.00 0.00 0.00 48 1011.6
20260505012238 15 152 17.7 40.2 0.00 0.00 0.00 48 1011.8
20260505011737 15 147 20.9 40.2 0.00 0.00 0.00 48 1011.7
20260505010733 15 153 17.7 37.0 0.00 0.00 0.00 47 1011.7
20260505010232 15 149 17.7 37.0 0.00 0.00 0.00 47 1011.6
20260505005731 16 146 14.5 43.5 0.00 0.00 0.00 47 1011.7
20260505005229 16 142 16.1 43.5 0.00 0.00 0.00 47 1011.5
20260505004727 16 145 19.3 43.5 0.00 0.00 0.00 46 1011.5
20260505003725 16 147 20.9 43.5 0.00 0.00 0.00 46 1011.7
20260505002222 16 146 19.3 37.0 0.00 0.00 0.00 47 1012.1
20260505001721 16 148 19.3 37.0 0.00 0.00 0.00 46 1012.2
20260505001219 16 145 20.9 35.4 0.00 0.00 0.00 47 1012.2
20260505000718 16 154 20.9 35.4 0.00 0.00 0.00 47 1012.2
20260505000218 16 154 16.1 32.2 0.00 0.00 0.00 47 1012.5
20260504235715 16 155 17.7 38.6 0.00 0.00 0.00 47 1012.6
20260504235214 16 158 19.3 38.6 0.00 0.00 0.00 47 1012.7
20260504234713 16 157 19.3 30.6 0.00 0.00 0.00 46 1012.8
20260504234212 16 174 12.9 32.2 0.00 0.00 0.00 46 1012.9
20260504232708 16 156 14.5 33.8 0.00 0.00 0.00 46 1012.6
20260504232206 16 167 16.1 30.6 0.00 0.00 0.00 47 1012.6
20260504231705 17 166 11.3 30.6 0.00 0.00 0.00 47 1012.7
20260504231204 17 161 14.5 27.4 0.00 0.00 0.00 47 1012.8
20260504230659 17 162 12.9 29.0 0.00 0.00 0.00 48 1012.9
20260504225657 17 157 14.5 30.6 0.00 0.00 0.00 48 1013.0
20260504225155 17 159 12.9 30.6 0.00 0.00 0.00 48 1013.3
20260504224653 17 151 14.5 27.4 0.00 0.00 0.00 48 1013.2
20260504224152 17 154 14.5 30.6 0.00 0.00 0.00 48 1013.3